SCP
0 0 0 0 0 0 0 0 0 0 0 0 0 1 1 2 1 1 1 0 0 0
0 0 0 0 0 0 0 0 0 0 0 0 0 0 0 1 2 2 1 1 0 0
0 0 0 0 0 0 0 0 0 0 0 0 0 0 0 1 0 1 1 0 0 0
0 0 0 0 0 0 0 0 0 0 0 0 0 0 0 0 0 1 1 0 0 0
0 0 0 0 0 0 0 0 0 0 0 0 0 0 0 0 1 1 0 0 0 0
0 0 0 0 0 0 0 0 0 0 0 0 0 0 0 0 0 1 0 0 0 1
0 0 0 0 0 0 0 0 0 0 0 0 0 0 0 0 0 1 2 2 0 0
0 0 0 0 0 0 0 0 0 0 0 0 0 0 0 0 0 1 1 1 1 0
0 0 0 0 0 0 0 0 0 0 0 0 0 0 0 0 0 1 1 0 0 0
0 0 0 0 0 0 0 0 0 0 0 0 0 0 0 0 0 0 0 0 0 0
0 0 0 0 0 0 0 0 0 0 0 0 0 0 0 -0 0 0 0 0 0 0
0 0 0 0 0 0 0 0 0 0 0 0 0 0 0 -0 -0 0 0 0 0 0
0 0 0 0 0 0 0 0 0 0 0 -0 0 0 0 -0 0 0 0 0 0 0
0 0 0 0 0 0 0 0 0 0 -0 0 0 0 0 0 0 -0 0 0 0 0
Wind_Speed_500mb
46 48 54 60 66 68 68 71 73 75 74 77 75 69 63 66 72 72 82 93 81 80
46 53 59 64 64 63 70 73 74 75 75 73 75 77 69 63 67 74 82 86 96 104
56 57 58 59 63 67 68 61 65 72 75 79 80 77 79 79 70 73 77 84 78 56
88 87 83 78 73 68 67 64 65 60 59 62 70 69 70 77 74 74 79 81 88 89
94 97 99 101 92 85 80 68 61 63 60 55 54 62 65 70 73 75 79 83 87 84
84 86 87 84 81 85 95 90 77 58 55 57 55 58 68 67 71 77 81 82 88 88
74 69 71 81 87 82 69 81 91 80 62 54 55 52 61 72 75 76 83 90 87 88
76 70 69 75 73 70 72 82 90 91 79 61 59 56 65 75 81 83 83 88 89 93
75 72 69 69 76 76 78 76 66 75 91 99 74 61 65 72 91 72 83 91 89 89
70 71 69 71 68 64 66 58 62 69 64 99 80 58 63 68 67 71 83 85 87 93
73 76 74 68 65 62 62 58 60 62 52 68 72 68 62 58 61 69 64 68 78 82
74 78 78 75 67 61 65 59 54 47 48 47 65 65 47 49 44 42 36 47 61 65
77 79 77 73 66 58 53 45 46 49 39 46 38 40 42 42 40 39 27 21 26 44
73 80 73 59 51 51 39 45 42 40 35 47 43 43 40 37 43 53 37 37 47 40
Wind_Direction_500mb
275 279 283 284 278 276 275 278 280 278 275 277 278 278 280 275 272 272 272 260 248 260
263 259 259 258 260 265 272 271 273 272 274 276 276 279 282 281 270 267 267 263 261 245
277 273 271 269 265 264 263 261 264 267 270 273 276 277 277 279 281 267 265 263 256 238
287 282 279 276 274 273 274 268 262 261 262 267 272 275 276 276 276 270 266 263 255 248
292 288 286 282 277 274 272 272 271 265 262 263 269 272 276 279 279 271 264 260 254 248
299 296 293 290 285 281 271 268 266 274 268 260 261 271 276 278 276 269 264 256 256 245
304 297 294 287 283 275 279 275 267 265 271 270 263 268 276 275 280 272 256 255 250 247
314 312 302 296 294 288 278 271 270 267 260 273 276 277 278 280 279 268 253 247 242 245
316 315 308 296 288 285 278 280 276 270 264 256 277 271 274 278 277 251 247 241 237 242
317 313 309 306 293 283 284 279 276 272 269 247 260 268 274 279 264 245 247 239 237 236
315 310 308 308 303 283 282 281 279 272 259 245 250 266 272 286 268 241 240 240 240 238
318 312 306 301 301 291 276 276 271 272 257 241 247 257 273 276 262 236 252 240 236 234
324 316 306 301 299 299 275 277 266 260 259 240 263 271 269 258 245 240 223 214 178 177
330 322 307 304 302 302 296 264 270 261 257 240 275 282 274 262 242 263 261 231 222 196
Wind_Speed_850mb
46 48 54 60 66 68 68 71 73 75 74 77 75 69 63 66 72 72 82 93 81 80
46 53 59 64 64 63 70 73 74 75 75 73 75 77 69 63 67 74 82 86 96 104
56 57 58 59 63 67 68 61 65 72 75 79 80 77 79 79 70 73 77 84 78 56
88 87 83 78 73 68 67 64 65 60 59 62 70 69 70 77 74 74 79 81 88 89
94 97 99 101 92 85 80 68 61 63 60 55 54 62 65 70 73 75 79 83 87 84
84 86 87 84 81 85 95 90 77 58 55 57 55 58 68 67 71 77 81 82 88 88
74 69 71 81 87 82 69 81 91 80 62 54 55 52 61 72 75 76 83 90 87 88
76 70 69 75 73 70 72 82 90 91 79 61 59 56 65 75 81 83 83 88 89 93
75 72 69 69 76 76 78 76 66 75 91 99 74 61 65 72 91 72 83 91 89 89
70 71 69 71 68 64 66 58 62 69 64 99 80 58 63 68 67 71 83 85 87 93
73 76 74 68 65 62 62 58 60 62 52 68 72 68 62 58 61 69 64 68 78 82
74 78 78 75 67 61 65 59 54 47 48 47 65 65 47 49 44 42 36 47 61 65
77 79 77 73 66 58 53 45 46 49 39 46 38 40 42 42 40 39 27 21 26 44
73 80 73 59 51 51 39 45 42 40 35 47 43 43 40 37 43 53 37 37 47 40
Wind_Direction_850mb
275 279 283 284 278 276 275 278 280 278 275 277 278 278 280 275 272 272 272 260 248 260
263 259 259 258 260 265 272 271 273 272 274 276 276 279 282 281 270 267 267 263 261 245
277 273 271 269 265 264 263 261 264 267 270 273 276 277 277 279 281 267 265 263 256 238
287 282 279 276 274 273 274 268 262 261 262 267 272 275 276 276 276 270 266 263 255 248
292 288 286 282 277 274 272 272 271 265 262 263 269 272 276 279 279 271 264 260 254 248
299 296 293 290 285 281 271 268 266 274 268 260 261 271 276 278 276 269 264 256 256 245
304 297 294 287 283 275 279 275 267 265 271 270 263 268 276 275 280 272 256 255 250 247
314 312 302 296 294 288 278 271 270 267 260 273 276 277 278 280 279 268 253 247 242 245
316 315 308 296 288 285 278 280 276 270 264 256 277 271 274 278 277 251 247 241 237 242
317 313 309 306 293 283 284 279 276 272 269 247 260 268 274 279 264 245 247 239 237 236
315 310 308 308 303 283 282 281 279 272 259 245 250 266 272 286 268 241 240 240 240 238
318 312 306 301 301 291 276 276 271 272 257 241 247 257 273 276 262 236 252 240 236 234
324 316 306 301 299 299 275 277 266 260 259 240 263 271 269 258 245 240 223 214 178 177
330 322 307 304 302 302 296 264 270 261 257 240 275 282 274 262 242 263 261 231 222 196